Flag for United Arab Emirates Weather past 2 weeks in Dubai, Dubai, United Arab Emirates

Now
63 °F

Haze.


Feels Like: 63 °F
Forecast: 67 / 75 °F
Wind: 3 mph from East

Location: Dubai International Airport

Current Time: Jan 25, 2015 at 8:39:33 AM

Latest Report: Jan 25, 2015 at 8:00 AM


Visibility: 3 mi

Pressure: 30.21 "Hg

Humidity: 77%

Dew point: 55 °F

Location of DubaiLocation

Historic Weather in Dubai — Graph

°F

Dubai temperature yesterday

Maximum temperature yesterday: 72 °F (at 12:00 PM)
Minimum temperature yesterday: 59 °F (at 7:00 AM)
Average temperature yesterday: 66 °F

Past Weeks' High & Low Weather Summary

 TemperatureHumidityPressure
High81 °F (Jan 10, 2:00 PM)94% (Jan 19, 2:00 PM)30.27 "Hg (Jan 19, 2:00 PM)
Low57 °F (Jan 20, 2:00 AM)29% (Jan 16, 12:00 PM)29.92 "Hg (Jan 19, 2:00 PM)
Average68 °F61%30.10 "Hg
* Reported Jan 10 7:00 AM — Jan 25 7:00 AM, Dubai, Weather by CustomWeather, © 2014

Note: Actual official high and low records may vary slightly from our data, if they occured in-between our weather recording intervals... More about our weather records

Advertising

Dubai weather history for previous 24 hours

 ConditionsComfort  
Time TempWeatherWind HumidityBarometerVisibility
7:00 AM
Jan 25
63 °FPassing clouds.6 mph83%30.18 "Hg4 mi
6:00 AM64 °FClear.5 mph73%30.15 "Hg5 mi
5:00 AM64 °FPassing clouds.3 mph73%30.15 "HgN/A
4:00 AM66 °FPassing clouds.6 mph68%30.15 "HgN/A
3:00 AM66 °FClear.2 mph68%30.15 "Hg10 mi
2:00 AM66 °FClear.2 mph68%30.15 "Hg10 mi
1:00 AM68 °FClear.3 mph64%30.15 "Hg10 mi
12:00 AM68 °FPassing clouds.3 mph64%30.15 "HgN/A
11:00 PM
Jan 24
68 °FPassing clouds.5 mph64%30.15 "HgN/A
10:00 PM70 °FPassing clouds.5 mph60%30.15 "HgN/A
9:00 PM68 °FPassing clouds.5 mph64%30.15 "HgN/A
8:00 PM68 °FPassing clouds.7 mph64%30.15 "HgN/A
7:00 PM70 °FClear.9 mph60%30.12 "Hg10 mi
6:00 PM70 °FPassing clouds.10 mph60%30.12 "HgN/A
5:00 PM70 °FSunny.10 mph57%30.09 "Hg10 mi
4:00 PM70 °FSunny.7 mph57%30.09 "Hg10 mi
3:00 PM72 °FPassing clouds.10 mph53%30.09 "HgN/A
2:00 PM70 °FPassing clouds.9 mph57%30.12 "HgN/A
1:00 PM72 °FPassing clouds.3 mph50%30.12 "HgN/A
12:00 PM72 °FPassing clouds.3 mph44%30.15 "HgN/A
11:00 AM70 °FSunny.5 mph50%30.18 "Hg10 mi
10:00 AM66 °FPassing clouds.5 mph60%30.18 "HgN/A
9:00 AM63 °FClear.6 mph73%30.18 "Hg4 mi
8:00 AM61 °FHaze.9 mph77%30.15 "Hg3 mi
Weather by CustomWeather, © 2014

See weather overviewHow to use our weather pages